Weather History for Racine, WI

Change the Weather History Date:

Tuesday, February 5, 2013

  Actual Average Record
Temperature  
Mean Temperature 20 °F -  
Max Temperature 30 °F 28 °F 48 °F (1964)
Min Temperature 10 °F 12 °F -14 °F (1979)
Degree Days  
Heating Degree Days 45    
Moisture  
Dew Point 16 °F    
Average Humidity 71    
Maximum Humidity 88    
Minimum Humidity 30    
Precipitation  
Precipitation 0.01 in - - ()
Sea Level Pressure  
Sea Level Pressure 29.88 in    
Wind  
Wind Speed 7 mph (West)    
Max Wind Speed 15 mph    
Max Gust Speed 21 mph    
Visibility 6 miles    
Events Fog , Snow    
Averages and records for this station are not official NWS values.
T = Trace of Precipitation, MM = Missing Value Source: NWS Daily Summary

Daily Weather History Graph

Daily Weather History Graph

Search for Another Location

Airport:

Trip Planner

Search our weather history database for the weather conditions in past years. The results will help you decide how hot, cold, wet, or windy it might be!

Date:

Astronomy

Feb. 05, 2013 Rise Set
Actual Time 7:00 AM CST 5:10 PM CST
Civil Twilight 6:31 AM CST 5:39 PM CST
Nautical Twilight 5:57 AM CST 6:13 PM CST
Astronomical Twilight 5:24 AM CST 6:46 PM CST
Moon 2:45 AM CST (2/5) 12:24 PM CST (2/5)
Length of Visible Light 11h 08m
Length of Day
10h 09m
Waning Crescent, 26% of the Moon is Illuminated
Feb 5
Waning Crescent
Feb 10
New
Feb 17
First Quarter
Feb 25
Full
Mar 4
Last Quarter

Hourly Weather History & Observations

Time (CST) Temp. Windchill Dew Point Humidity Pressure Visibility Wind Dir Wind Speed Gust Speed Precip Events Conditions
12:53 AM 24.1 °F 19.7 °F -0.0 °F 35% 29.96 in 10.0 mi West 3.5 mph - N/A   Clear
1:53 AM 17.1 °F 11.7 °F -0.9 °F 45% 29.95 in 10.0 mi West 3.5 mph - N/A   Clear
2:53 AM 10.9 °F - -0.9 °F 59% 29.92 in 10.0 mi Calm Calm - N/A   Clear
3:53 AM 16.0 °F - -0.0 °F 49% 29.91 in 10.0 mi Calm Calm - N/A   Clear
4:53 AM 28.0 °F 22.8 °F -0.0 °F 30% 29.91 in 10.0 mi West 4.6 mph - N/A   Mostly Cloudy
5:53 AM 28.0 °F 22.8 °F 1.0 °F 31% 29.91 in 10.0 mi SW 4.6 mph - N/A   Overcast
6:53 AM 26.1 °F 16.8 °F 8.1 °F 47% 29.89 in 2.5 mi SSW 9.2 mph - 0.00 in Snow Light Snow
7:16 AM 26.6 °F 17.5 °F 10.4 °F 51% 29.85 in 4.0 mi SSW 9.2 mph - 0.00 in Snow Light Snow
7:53 AM 28.0 °F 19.3 °F 12.9 °F 53% 29.87 in 8.0 mi SW 9.2 mph - 0.00 in   Overcast
8:53 AM 30.9 °F 21.7 °F 15.1 °F 52% 29.84 in 10.0 mi SSW 11.5 mph - N/A   Overcast
9:53 AM 21.0 °F 9.3 °F 16.0 °F 81% 29.83 in 10.0 mi SW 11.5 mph - N/A   Mostly Cloudy
10:53 AM 24.1 °F 14.4 °F 18.0 °F 77% 29.83 in 10.0 mi WSW 9.2 mph - N/A   Overcast
11:07 AM 24.8 °F 15.3 °F 17.6 °F 74% 29.80 in 10.0 mi WSW 9.2 mph - N/A   Overcast
11:29 AM 24.8 °F 12.9 °F 19.4 °F 80% 29.78 in 2.5 mi SW 13.8 mph 20.7 mph 0.00 in Snow Light Snow
11:44 AM 24.8 °F 14.6 °F 19.4 °F 80% 29.78 in 1.0 mi WSW 10.4 mph 20.7 mph 0.00 in Snow Light Snow
11:53 AM 24.1 °F 13.1 °F 19.0 °F 81% 29.81 in 1.5 mi WSW 11.5 mph 20.7 mph 0.00 in Snow Light Snow
11:59 AM 24.8 °F 14.0 °F 19.4 °F 80% 29.79 in 2.0 mi WSW 11.5 mph 20.7 mph 0.00 in Snow Light Snow
12:08 PM 24.8 °F 16.1 °F 19.4 °F 80% 29.79 in 0.8 mi West 8.1 mph - 0.00 in Snow Light Snow
12:23 PM 24.8 °F 13.4 °F 21.2 °F 86% 29.79 in 0.5 mi WSW 12.7 mph 17.3 mph 0.00 in Fog , Snow Snow
12:48 PM 24.8 °F 15.3 °F 21.2 °F 86% 29.79 in 1.0 mi WSW 9.2 mph - 0.01 in Snow Light Snow
12:53 PM 24.1 °F 15.2 °F 21.0 °F 88% 29.81 in 1.2 mi WSW 8.1 mph - 0.01 in Snow Light Snow
1:02 PM 24.8 °F 16.1 °F 21.2 °F 86% 29.79 in 1.2 mi WSW 8.1 mph - 0.00 in Snow Light Snow
1:42 PM 24.8 °F 14.6 °F 21.2 °F 86% 29.79 in 2.5 mi West 10.4 mph - 0.00 in Snow Light Snow
1:50 PM 26.6 °F 16.8 °F 21.2 °F 80% 29.79 in 4.0 mi WSW 10.4 mph - 0.00 in   Haze
1:53 PM 26.1 °F 17.6 °F 21.0 °F 81% 29.82 in 5.0 mi West 8.1 mph - 0.00 in   Haze
2:02 PM 26.6 °F 16.8 °F 21.2 °F 80% 29.79 in 5.0 mi West 10.4 mph - N/A   Haze
2:53 PM 26.1 °F 17.6 °F 21.0 °F 81% 29.86 in 5.0 mi WNW 8.1 mph - N/A   Haze
3:04 PM 26.6 °F 19.1 °F 21.2 °F 80% 29.82 in 5.0 mi Variable 6.9 mph - N/A   Haze
3:39 PM 26.6 °F 18.2 °F 21.2 °F 80% 29.84 in 1.8 mi WNW 8.1 mph - 0.00 in Snow Light Snow
3:51 PM 26.6 °F 19.1 °F 21.2 °F 80% 29.85 in 3.0 mi WNW 6.9 mph - 0.00 in Snow Light Snow
3:53 PM 26.1 °F 17.6 °F 21.0 °F 81% 29.88 in 3.0 mi West 8.1 mph - 0.00 in   Haze
4:53 PM 26.1 °F 20.5 °F 19.9 °F 78% 29.91 in 5.0 mi West 4.6 mph - N/A   Haze
5:53 PM 26.1 °F 18.4 °F 21.0 °F 81% 29.94 in 6.0 mi West 6.9 mph - N/A   Haze
6:53 PM 27.0 °F 21.6 °F 21.0 °F 78% 29.97 in 7.0 mi WNW 4.6 mph - N/A   Overcast
7:53 PM 27.0 °F 20.5 °F 21.0 °F 78% 30.00 in 8.0 mi NW 5.8 mph - N/A   Overcast
8:53 PM 27.0 °F 15.2 °F 18.0 °F 69% 30.04 in 10.0 mi NNW 15.0 mph 20.7 mph N/A   Overcast
9:53 PM 26.1 °F 18.4 °F 17.1 °F 69% 30.06 in 10.0 mi NW 6.9 mph 16.1 mph N/A   Overcast
10:53 PM 25.0 °F 17.1 °F 17.1 °F 72% 30.09 in 10.0 mi North 6.9 mph - N/A   Overcast
11:53 PM 24.1 °F 13.7 °F 14.0 °F 65% 30.12 in 10.0 mi North 10.4 mph - N/A   Overcast